Вернуться в каталог

COSMOS 1823 DEB

АктивенLEO
NORAD 19440·DEBRIS·🇷🇺 Russia

Запущен Feb 20, 1987 с Plesetsk Cosmodrome

Loading…

Ближайшие Пролёты (ближайшие 24 часа)

TLE

СвежийSource: Space-Track

Эпоха: Sep 14, 2026, 02:54 UTC

1 19440U 87020CA  26257.12103925  .00000052  00000-0  30568-3 0  9992
2 19440  73.7509 295.1005 0161781 113.1360 278.7982 12.75938830789870

Отслеживайте COSMOS 1823 DEB в реальном времени с AllMySat

Download on the App Store